Flag for Poland Past Weather in Lidzbark Warmiński, Poland — Yesterday and Last 2 Weeks

Now
67 °F

Mild.


Feels Like: 67 °F
Forecast: 58 / 80 °F
Wind: 3 mph from South

Location: Ketrzyn

Current Time: Jun 29, 2016 at 9:23:43 AM

Latest Report: Jun 29, 2016 at 8:00 AM


Visibility: 16 mi

Pressure: 29.96 "Hg

Humidity: 81%

Dew Point: 61 °F

Location of Lidzbark WarmińskiLocation

Past Weather in Lidzbark Warmiński — Graph

°F

Lidzbark Warmiński Temperature Yesterday

Maximum temperature yesterday: 71 °F (at 3:00 PM)
Minimum temperature yesterday: 57 °F (at 2:00 AM)
Average temperature yesterday: 63 °F

High & Low Weather Summary for the Past Weeks

 TemperatureHumidityPressure
High90 °F (Jun 26, 1:00 PM)98% (Jun 21, 4:00 AM)30.33 "Hg (Jun 21, 4:00 AM)
Low53 °F (Jun 16, 4:00 AM)37% (Jun 23, 6:00 PM)29.38 "Hg (Jun 17, 1:00 PM)
Average67 °F73%29.95 "Hg
* Reported Jun 14 8:00 AM — Jun 29 8:00 AM, Lidzbark Warmiński, Weather by CustomWeather, © 2016

Note: Actual official high and low records may vary slightly from our data, if they occured in-between our weather recording intervals... More about our weather records

Advertising

Lidzbark Warmiński Weather History for the Previous 24 Hours

Scroll right to see more
 ConditionsComfort  
Time TempWeatherWind HumidityBarometerVisibility
8:00 AM
Wed, Jun 29
67 °FMild.3 mph81%29.96 "Hg16 mi
7:00 AM64 °FMild.3 mph85%29.96 "Hg14 mi
6:00 AM61 °FCool.2 mph90%29.97 "Hg11 mi
5:00 AM58 °FCool.1 mph91%29.98 "Hg11 mi
4:00 AM59 °FCool.2 mph91%29.98 "Hg12 mi
3:00 AM60 °FCool.2 mph91%29.98 "Hg14 mi
2:00 AM59 °FCool.3 mph92%29.99 "Hg12 mi
1:00 AM60 °FCool.2 mph89%29.99 "Hg16 mi
12:00 AM60 °FCool.1 mph90%29.99 "Hg17 mi
11:00 PM
Tue, Jun 28
60 °FCool.1 mph89%30.00 "Hg19 mi
10:00 PM61 °FCool.2 mph86%30.00 "Hg14 mi
9:00 PM62 °FCool.2 mph84%29.99 "Hg28 mi
8:00 PM65 °FMild.1 mph76%29.98 "Hg25 mi
6:00 PM64 °FMild.3 mph78%29.98 "Hg25 mi
5:00 PM63 °FRain. Cloudy.6 mph73%29.99 "Hg6 mi
4:00 PM70 °FMild.2 mph62%29.98 "Hg25 mi
3:00 PM71 °FMild.2 mph59%29.99 "Hg22 mi
2:00 PM71 °FMild.3 mph54%30.00 "Hg22 mi
1:00 PM71 °FMild.3 mph59%30.01 "Hg22 mi
12:00 PM68 °FMild.3 mph63%30.01 "Hg25 mi
11:00 AM67 °FMild.3 mph63%30.02 "Hg22 mi
10:00 AM67 °FMild.3 mph61%30.02 "Hg22 mi
9:00 AM66 °FMild.2 mph69%30.02 "Hg19 mi
Weather by CustomWeather, © 2016

See weather overviewHow to use our weather pages